Regional Weather Roundup
Issued by NWS

Home | Current Version | Previous Version | Text Only | Print | Product List | Glossary On
Versions: 1 2 3 4 5 6 7 8 9 10 11 12 13 14 15 16 17 18 19 20 21 22 23 24 25 26 27 28 29 30 31 32 33 34 35 36 37 38 39 40 41 42 43 44 45 46 47 48 49 50
000
ASUS43 KDTX 231710
RWRMI
MICHIGAN HOURLY REGIONAL WEATHER ROUNDUP
NATIONAL WEATHER SERVICE DETROIT/PONTIAC MI
100 PM EDT TUE MAY 23 2017

NOTE: "FAIR" INDICATES FEW OR NO CLOUDS BELOW 12,000 FEET WITH NO
SIGNIFICANT WEATHER AND/OR OBSTRUCTION TO VISIBILITY.

MIZ047>049-052>055-059>063-066>070-074>076-081>083-231800-
SOUTHEAST LOWER MICHIGAN

CITY           SKY/WX    TMP DP  RH WIND       PRES   REMARKS
ADRIAN         MOSUNNY   69  49  48 S6        29.84F
ALMA           CLOUDY    67  54  62 S9G24     29.82S
ANN ARBOR      PTSUNNY   69  52  54 W7        29.83F
BAD AXE        CLOUDY    65  54  69 CALM      29.84F
CARO           CLOUDY    67  55  63 SW9       29.82F
DETROIT CITY   PTSUNNY   72  51  47 CALM      29.83F
DETROIT        PTSUNNY   71  49  45 S12       29.83F
FLINT          CLOUDY    65  52  62 SW6       29.84F
GROSSE ILE     MOSUNNY   66  53  64 S7        29.83F
HILLSDALE      MOSUNNY   68  48  49 SW6       29.83S
HOWELL         LGT RAIN  64  50  59 SW3       29.84S

CITY           SKY/WX    TMP DP  RH WIND       PRES   REMARKS
JACKSON        CLOUDY    66  52  60 CALM      29.83F
LAMBERTVILLE   CLOUDY    71  48  43 SE9       29.83F
LANSING        CLOUDY    68  51  54 SW9       29.83F
LAPEER         CLOUDY    67  51  57 SW5       29.84F
MASON          LGT RAIN  65  54  66 W3        29.84S
MONROE         PTSUNNY   71  50  47 SE3       29.83F
MT. CLEMENS    PTSUNNY   69  57  66 E7        29.83F
PONTIAC        CLOUDY    67  50  54 SW7       29.83F
PORT HOPE        N/A     61  56  83 CALM      29.83S
PORT HURON     SUNNY     68  48  49 S7        29.85S
TRI CITIES     CLOUDY    67  52  58 SW9       29.81F
MIDLAND        CLOUDY    66  52  59 SW6       29.81S
TROY           CLOUDY    71  44  37 SW9       29.85F
SAGINAW HB     CLOUDY    72  48  43 S16       29.81F
$$
MIZ043>046-050>051-056>058-064>065-071>073-077>080-231800-
SOUTHWEST LOWER MICHIGAN

CITY           SKY/WX    TMP DP  RH WIND       PRES   REMARKS
BATTLE CREEK   CLOUDY    67  52  58 SW12G17   29.83F
BENTON HARBOR  LGT RAIN  60  55  83 SW6       29.83F
BIG RAPIDS     PTSUNNY   66  52  59 SW6       29.79F
COLDWATER      CLOUDY    67  51  56 CALM      29.83F
FREMONT        CLOUDY    67  51  55 SW9G16    29.79F
HOLLAND        LGT RAIN  61  53  75 SW14      29.83S
GRAND RAPIDS   CLOUDY    66  53  63 SW12      29.81F
IONIA          CLOUDY    66  53  63 SW7       29.81F
KALAMAZOO      CLOUDY    66  50  56 W9        29.82F
LUDINGTON      CLOUDY    56  53  88 W5        29.79F
MARSHALL       PTSUNNY   67  51  56 W5        29.82F
MOUNT PLEASANT CLOUDY    66  53  61 S6        29.79F
MUSKEGON       CLOUDY    62  53  72 SW14      29.81S
SOUTH HAVEN    LGT RAIN  60  57  89 SW7       29.83S
$$
MIZ016>042-231800-
NORTHERN LOWER MICHIGAN

CITY           SKY/WX    TMP DP  RH WIND       PRES   REMARKS
ALPENA         PTSUNNY   62  51  67 VRB5      29.83S
BEAVER ISLAND  CLOUDY    54  44  70 NE6       29.85S
BELLAIRE       CLOUDY    65  46  50 N3        29.80F
CADILLAC       MOSUNNY   63  52  67 W3        29.79F
CHARLEVOIX     CLOUDY    47  46  93 N7        29.86F
FRANKFORT      CLOUDY    58  51  76 W6        29.80S
GAYLORD        CLOUDY    64  43  46 CALM      29.81F
GRAYLING       CLOUDY    62  53  71 SW3       29.81F
HARBOR SPRINGS CLOUDY    54  47  78 SW3       29.83S
HOUGHTON LAKE  MOSUNNY   63  52  67 W6        29.81F
MANISTEE       CLOUDY    59  55  87 CALM      29.80F
OSCODA         CLOUDY    59  53  78 E8        29.82S
PELLSTON       MOSUNNY   61  45  55 E5        29.84S
ROGERS CITY    CLOUDY    47  46  97 NE5       29.86S FOG
TRAVERSE CITY  CLOUDY    56  48  74 NE3       29.80S
$$
MIZ007>008-015-231800-
EASTERN UPPER MICHIGAN

CITY           SKY/WX    TMP DP  RH WIND       PRES   REMARKS
KINROSS        SUNNY     58  44  60 CALM      29.84F
MACKINAC ISLAN MOSUNNY   50  50 100 SE6       29.85S
NEWBERRY       PTSUNNY   58  43  58 CALM      29.83F
S. S. MARIE    SUNNY     60  47  61 SW5       29.83S
MUNISING         N/A     47  43  86 NE8       29.85S
$$
MIZ004>006-011>014-085-231800-
CENTRAL UPPER MICHIGAN

CITY           SKY/WX    TMP DP  RH WIND       PRES   REMARKS
MANISTIQUE     CLOUDY    54  46  74 N5        29.84S
ESCANABA       CLOUDY    53  47  79 NE6       29.84F
MENOMINEE      CLOUDY    51  47  86 E8        29.83F
SAWYER-GWINN   CLOUDY    54  43  66 CALM      29.85F
$$
MIZ001>003-009>011-084-231800-
WESTERN UPPER MICHIGAN

CITY           SKY/WX    TMP DP  RH WIND       PRES   REMARKS
IRON MOUNTAIN  CLOUDY    55  42  61 E7        29.83F
HOUGHTON       CLOUDY    54  45  71 NW7       29.85F
COPPER HARBOR    N/A     41  38  89 CALM      29.88S
IRONWOOD       CLOUDY    54  45  71 CALM      29.86S
$$

ABBREVIATIONS USED IN REMARKS
   TC - TEMPERATURE IN CELSIUS
  WCI - WIND CHILL INDEX
   HX - HEAT INDEX
  VSB - VISIBILITY





USA.gov is the U.S. government's official web portal to all federal, state and local government web resources and services.